Regional Weather Roundup
Issued by NWS

Home | Current Version | Previous Version | Graphics & Text | Print | Product List | Glossary On
Versions: 1 2 3 4 5 6 7 8 9 10 11 12 13 14 15 16 17 18 19 20 21 22 23 24 25 26 27 28 29 30 31 32 33 34 35 36 37 38 39 40 41 42 43 44 45 46 47 48 49 50
000
ASUS43 KLMK 280910
RWRKY
KENTUCKY REGIONAL WEATHER ROUNDUP
NATIONAL WEATHER SERVICE LOUISVILLE KY
400 AM EST SAT FEB 28 2015

NOTE "FAIR" INDICATES FEW OR NO CLOUDS BELOW 12,000 FEET
WITH NO SIGNIFICANT WEATHER AND/OR OBSTRUCTIONS TO VISIBILITY.

KYZ001>023-026-027-061>063-070>075-281000-
WESTERN AND SOUTH CENTRAL KENTUCKY

CITY           SKY/WX    TMP DP  RH WIND       PRES   REMARKS
PADUCAH        CLOUDY    20  10  65 NE8       30.58F WCI  10
HENDERSON      MOCLDY    19   9  63 E9        30.62F WCI   9
OWENSBORO      MOCLDY    20  10  65 NE7       30.63F WCI  11
HOPKINSVILLE   CLOUDY    22  13  67 NE7       30.57F WCI  13
BOWLING GREEN  CLOUDY    23   8  52 NE10      30.60S WCI  12
GLASGOW        CLOUDY    21  10  61 NE6       30.59R WCI  14
$$

KYZ024-025-028>034-038-045-046-053-281000-
NORTH CENTRAL KENTUCKY

CITY           SKY/WX    TMP DP  RH WIND       PRES   REMARKS
LOUISVILLE/SDF MOCLDY    19   4  51 E9        30.64F WCI   8
LOUISVILLE/LOU MOCLDY    18   2  49 E9        30.65S WCI   7
FORT KNOX      CLOUDY    19   5  55 NE8       30.59S WCI   8
$$

KYZ035>037-039>044-047>052-055>060-089>105-281000-
NORTHEAST KENTUCKY

CITY           SKY/WX    TMP DP  RH WIND       PRES   REMARKS
LEXINGTON      CLOUDY    16   4  59 E10       30.62F WCI   4
COVINGTON      CLOUDY    12   0  58 E7        30.65S WCI   1
FRANKFORT        N/A     16   3  56 E7        30.63F WCI   6
$$

KYZ054-064>069-076>088-106>120-281000-
SOUTHEAST KENTUCKY

CITY           SKY/WX    TMP DP  RH WIND       PRES   REMARKS
JACKSON        CLOUDY    18   6  59 NE6       30.58R WCI  10
LONDON         CLOUDY    21   7  54 NE3       30.57S
SOMERSET       MOCLDY    19   9  63 E5        30.60S WCI  13
MIDDLESBORO    CLOUDY    23  11  61 CALM      30.57S
MONTICELLO     PTSUNNY   21   9  60 NE8       30.58F WCI  11
$$



USA.gov is the U.S. government's official web portal to all federal, state and local government web resources and services.